Regional Weather Roundup
Issued by NWS

Home | Current Version | Previous Version | Text Only | Print | Product List | Glossary Off
Versions: 1 2 3 4 5 6 7 8 9 10 11 12 13 14 15 16 17 18 19 20 21 22 23 24 25 26 27 28 29 30 31 32 33 34 35 36 37 38 39 40 41 42 43 44 45 46 47 48 49 50

000
ASUS45 KBOI 201110
RWRID
WEATHER ROUNDUP FOR IDAHO
NATIONAL WEATHER SERVICE BOISE ID
500 AM MDT SAT SEP 20 2014

NOTE: "FAIR" INDICATES FEW OR NO CLOUDS BELOW 12000 FEET
WITH NO SIGNIFICANT WEATHER AND/OR OBSTRUCTIONS TO VISIBILITY

IDZ012-014-201200-
SOUTHWEST IDAHO


CITY           SKY/WX    TMP DP  RH WIND       PRES   REMARKS
BOISE          CLEAR     56  44  64 S6        30.08R
CALDWELL       CLEAR     57  41  54 W3        30.09R
MOUNTAIN HOME  CLEAR     52  42  67 NE8       30.08R
$$

IDZ016-017-201200-
SOUTHCENTRAL IDAHO


CITY           SKY/WX    TMP DP  RH WIND       PRES   REMARKS
BURLEY         CLEAR     47  42  83 S3        30.15S
JEROME         CLEAR     51  43  74 E7        30.15R
TWIN FALLS     CLEAR     59  43  55 S10       30.15R
$$

IDZ019>023-201200-
SOUTHEAST IDAHO


CITY           SKY/WX    TMP DP  RH WIND       PRES   REMARKS
IDAHO FALLS    CLEAR     47  42  83 NE3       30.20R
POCATELLO      CLEAR     47  44  90 S3        30.19R
REXBURG        CLEAR     46  40  79 NE3       30.22R
$$

IDZ006-010-011-018-031-032-201200-
CENTRAL IDAHO MOUNTAINS


CITY           SKY/WX    TMP DP  RH WIND       PRES   REMARKS
MCCALL         CLEAR     54  42  64 N9        30.19S
HAILEY         CLEAR     52  39  62 NW8       30.23R
STANLEY          N/A     36  33  89 CALM      30.31R
SALMON         PTCLDY    43  37  81 CALM      30.23R
CHALLIS        CLEAR     51  39  63 S3        30.24R
$$

IDZ002-004-006-007-026-201200-
NORTHERN IDAHO


CITY           SKY/WX    TMP DP  RH WIND       PRES   REMARKS
LEWISTON       CLEAR     58  46  64 E3        30.11R
LOWELL           N/A     51  48  89 CALM      30.19R
COEUR D`ALENE  PTCLDY    55  48  76 S5        30.14R
MULLAN PASS    CLEAR     49  43  80 S5        30.27S
$$


USA.gov is the U.S. government's official web portal to all federal, state and local government web resources and services.